User: anonymous   Login
Location: Mentone
(34.5413°N, 85.5351°W)
Time: 15:52:36
(UTC-05:00)
Language:

SL-8 R/B - Orbit

View from above orbital plane
View from above orbital plane
View from above satellite
View from above satellite

Ground track
Ground track

The orbit data is extracted from the following two-line orbital elements,

1 33066U 08031G   17177.21072215 -.00000083 +00000-0 +18789-4 0  9992
2 33066 048.4445 068.1902 0007413 156.8914 345.4240 14.69544944484035
Epoch (UTC): 26 June 2017 05:03:26
Eccentricity: 0.0007413
inclination: 48.4445°
perigee height: 657 km
apogee height: 668 km
right ascension of ascending node: 68.1902°
argument of perigee: 156.8914°
revolutions per day: 14.69544944
mean anomaly at epoch: 345.4240°
orbit number at epoch: 48403

The dashed part of the orbit path shows where the satellite is in the earth's shadow,  

DLR